Volver al catálogo

STARLINK-32312

ActivoComunicacionesVLEO
NORAD 61711·PAYLOAD·🇺🇸 United States

Lanzado Oct 30, 2024 desde Cape Canaveral Space Force Station

Loading…

Próximos Pases (próximas 24 horas)

TLE

ActualizadoSource: CelesTrak SupGP

Época: Sep 14, 2026, 21:16 UTC

1 61711C 24196E   26257.88659722  .00013144  00000+0  38845-3 0  2577
2 61711  53.1570 299.5990 0001113  88.6549 318.8568 15.34375036    15

Sigue STARLINK-32312 en tiempo real con AllMySat

Download on the App Store